[[{"header":{"parameterUnit":"m.s-1","parameterCategory":1,"la1":30.2991,"la2":30.254,"lo1":-89.0895,"lo2":-89.0444,"dy":0.0017,"dx":0.0017,"nx":28,"ny":28,"refTime":"2024-03-05T03:00:00:Z","depth":0,"parameterNumber":2,"parameterNumberName":"U-component_of_WINDS"},"data":[0,0,0,0,0,0,0,0,0,0,0,0,0,0,0,0,0,0,0,0,0,0,0,0,0,0,0,0,0,0,0,0,0,0,0,0,0,0,0,0,0,0,0,0,0,0,0,0,0,0,0,0,0,0,0,0,0,0,-4.8163,-4.8164,0,-4.8214,-4.8215,-4.8216,-4.811,-4.8107,-4.8103,-4.81,-4.8155,-4.8159,-4.8164,0,0,0,0,0,0,0,0,0,0,0,0,0,-4.7977,-4.7981,-4.8163,-4.8164,-4.8164,-4.8214,-4.8215,-4.8216,-4.8111,-4.8106,-4.8102,-4.8098,-4.8153,-4.8159,-4.8164,0,0,0,0,0,0,0,0,0,0,0,0,0,-4.8046,-4.7982,-4.8163,-4.8118,-4.8114,-4.8214,-4.8215,-4.8216,-4.8111,-4.8106,-4.8101,-4.8096,-4.8151,-4.8158,-4.8165,-4.8312,0,0,-4.8186,-4.8189,0,0,0,0,0,0,0,0,-4.8042,-4.8053,-4.8124,-4.8121,-4.8117,-4.815,-4.8169,-4.8248,-4.8113,-4.8113,-4.81,-4.8094,-4.8158,-4.8164,-4.8185,-4.8314,-4.8317,-4.8187,-4.8191,-4.8194,-4.8196,0,0,0,0,0,0,0,-4.8038,-4.805,-4.8183,-4.8125,-4.8121,-4.8096,-4.81,-4.8184,-4.8164,-4.8112,-4.8105,-4.8112,-4.8155,-4.8178,-4.8185,-4.8317,-4.8187,-4.8193,-4.8197,-4.82,-4.8572,-4.8577,0,0,0,0,0,0,-4.8038,-4.8047,-4.8182,-4.8185,-4.8066,-4.8104,-4.8108,-4.8145,-4.8162,-4.816,-4.8116,-4.8107,-4.8169,-4.8177,-4.8187,-4.836,-4.8194,-4.8201,-4.8205,-4.8566,-4.8573,-4.8579,0,0,0,0,0,0,-4.8035,-4.8051,-4.818,-4.8114,-4.8128,-4.8112,-4.8155,-4.8149,-4.8172,-4.8165,-4.8162,-4.8144,-4.8165,-4.8177,-4.8282,-4.8361,-4.8204,-4.821,-4.856,-4.8569,-4.8576,-4.8708,0,0,0,0,0,0,-4.803,-4.8051,-4.8105,-4.8116,-4.8132,-4.8273,-4.8159,-4.8154,-4.8184,-4.8172,-4.819,-4.8188,-4.8162,-4.8272,-4.8289,-4.8367,-4.8216,-4.8553,-4.8564,-4.8574,-4.8697,-4.872,-4.874,0,0,0,0,0,-4.8023,-4.814,-4.8108,-4.8125,-4.82,-4.8277,-4.8287,-4.8254,-4.8191,-4.8246,-4.8243,-4.8188,-4.835,-4.8283,-4.8302,-4.8384,-4.8547,-4.856,-4.8573,-4.8687,-4.8715,-4.874,0,0,0,0,0,0,-4.8139,-4.8141,-4.8105,-4.8229,-4.8254,-4.8259,-4.8328,-4.8285,-4.8328,-4.8315,-4.8273,-4.8278,-4.8392,-4.8398,-4.8324,-4.8528,-4.8438,-4.8455,-4.8519,-4.8546,-4.8567,-4.8562,-4.8222,0,0,0,0,0,-4.8179,-4.8241,-4.8239,-4.8348,-4.8363,-4.8344,-4.8376,-4.8349,-4.8373,-4.8383,-4.8387,-4.8414,-4.847,-4.8509,-4.8561,-4.8698,-4.8701,-4.8764,-4.8785,-4.8803,-4.8818,-4.8892,-4.892,-4.8621,-4.8621,-4.8621,0,0,-4.8261,-4.827,-4.8312,-4.8372,-4.8388,-4.8454,-4.8353,-4.8427,-4.8476,-4.8395,-4.8493,-4.8498,-4.8525,-4.8647,-4.8701,-4.8656,-4.8902,-4.882,-4.8834,-4.8839,-4.8908,-4.8937,-4.8962,-4.863,-4.8628,-4.8627,0,0,-4.8445,-4.8458,-4.8551,-4.857,-4.8596,-4.8583,-4.8606,-4.8619,-4.8618,-4.8717,-4.8658,-4.8716,-4.8815,-4.8837,-4.8861,-4.9058,-4.9009,-4.9076,-4.9189,-4.9262,-4.9286,-4.9306,-4.9376,-4.9402,-4.9091,-4.9092,-4.9092,0,-4.8544,-4.8641,-4.8604,-4.8683,-4.8712,-4.8642,-4.8736,-4.8757,-4.8799,-4.8821,-4.877,-4.8894,-4.8907,-4.9034,-4.9082,-4.9104,-4.9129,-4.9073,-4.9285,-4.9306,-4.9324,-4.9391,-4.9417,-4.91,-4.9099,-4.9098,-4.9097,0,-4.8762,-4.883,-4.8902,-4.8945,-4.8982,-4.9068,-4.9046,-4.9089,-4.9059,-4.9052,-4.9155,-4.9169,-4.9223,-4.9252,-4.9224,-4.9376,-4.9347,-4.9292,-4.9201,-4.9361,-4.9423,-4.9448,-4.9111,-4.9108,-4.9106,-4.9104,0,0,-4.9016,-4.904,-4.9067,-4.9086,-4.9111,-4.9164,-4.9249,-4.9301,-4.9339,-4.9372,-4.9441,-4.9528,-4.9478,-4.9506,-4.948,-4.9544,-4.97,-4.9481,-4.9481,-4.9521,-4.9869,-4.9909,-4.9939,-4.9669,-4.9674,-4.9677,-4.9866,0,-4.9198,-4.9342,-4.9313,-4.9455,-4.9518,-4.9455,-4.9528,-4.9553,-4.955,-4.9604,-4.9601,-4.9663,-4.9592,-4.9608,-4.9669,-4.9668,-4.9769,-4.9654,-4.9734,-4.9737,-4.9727,-4.9971,-5.0013,-5.0191,-4.989,-4.9894,-4.9897,0,-4.9429,-4.947,-4.9618,-4.9635,-4.9661,-4.9727,-4.9775,-4.9827,-4.9855,-4.9848,-4.9881,-4.9844,-4.9929,-4.9839,-4.9957,-4.9879,-4.9911,-4.9916,-4.9922,-4.9927,-4.9825,-4.9982,-5.0246,-5.0273,-4.9935,-4.9932,-4.9929,0,-4.9599,-4.9692,-4.9793,-4.9812,-4.9834,-4.9883,-4.9895,-4.9917,-4.9952,-4.9994,-5.0016,-5.0068,-5.0096,-5.0138,-5.0117,-5.0053,-5.0239,-5.0147,-5.0236,-5.0237,-5.0276,-5.0273,-5.0549,-5.0299,-5.0299,-5.0298,-5.0298,0,-4.9804,-4.9897,-4.987,-4.9932,-5.0035,-5.0002,-5.0105,-5.011,-5.0131,-5.0193,-5.0143,-5.0203,-5.0172,-5.023,-5.0215,-5.0315,-5.0328,-5.0326,-5.032,-5.0329,-5.033,-5.0348,-5.0334,-5.0305,-5.0304,-5.0303,-5.0301,0,-5.001,-4.9996,-5.0101,-5.0115,-5.0121,-5.0196,-5.0208,-5.0267,-5.0262,-5.0342,-5.0359,-5.035,-5.0416,-5.04,-5.0472,-5.0462,-5.0588,-5.0568,-5.0579,-5.0573,-5.0663,-5.0654,-5.0958,-5.0996,-5.0724,-5.0727,-5.0729,0,-5.014,-5.021,-5.0233,-5.0271,-5.0287,-5.0349,-5.0384,-5.0357,-5.0396,-5.0434,-5.0489,-5.0551,-5.0598,-5.0708,-5.0708,-5.0764,-5.0744,-5.0847,-5.0752,-5.0759,-5.0744,-5.074,-5.0747,-5.0865,-5.0868,-5.087,-5.0873,0,-5.0373,-5.0364,-5.0416,-5.0468,-5.0512,-5.0551,-5.0585,-5.062,-5.0595,-5.0642,-5.0709,-5.0747,-5.0822,-5.0884,-5.0936,-5.0949,-5.0908,-5.0903,-5.0926,-5.0935,-5.0938,-5.0937,-5.0628,-5.0895,-5.0893,-5.0891,-5.089,-5.0889,-5.0544,-5.0604,-5.063,-5.0691,-5.0715,-5.0749,-5.0805,-5.0807,-5.0863,-5.0921,-5.0902,-5.098,-5.1008,-5.1073,-5.1094,-5.1154,-5.1115,-5.115,-5.1158,-5.1166,-5.1177,-5.0931,-5.1164,-5.1163,-5.1163,-5.1162,-5.1162,0,-5.0774,-5.0788,-5.0845,-5.0896,-5.0945,-5.0902,-5.0939,-5.0983,-5.1051,-5.1081,-5.113,-5.1209,-5.127,-5.1277,-5.1335,-5.1383,-5.1365,-5.1399,-5.1394,-5.1398,-5.1209,-5.1182,-5.1412,-5.1412,-5.1412,-5.1412,-5.1412,-5.1412,-5.0899,-5.0998,-5.0993,-5.1104,-5.1118,-5.1193,-5.1218,-5.125,-5.1273,-5.1363,-5.1414,-5.1419,-5.144,-5.15,-5.1555,-5.1556,-5.1579,-5.162,-5.1613,-5.1436,-5.1411,-5.1387,-5.1362,-5.1626,-5.1626,-5.1797,-5.1798,-5.18]},{"header":{"parameterUnit":"m.s-1","parameterCategory":1,"la1":30.2991,"la2":30.254,"lo1":-89.0895,"lo2":-89.0444,"dy":0.0017,"dx":0.0017,"nx":28,"ny":28,"refTime":"2024-03-05T03:00:00:Z","depth":0,"parameterNumber":3,"parameterNumberName":"V-component_of_WINDS"},"data":[0,0,0,0,0,0,0,0,0,0,0,0,0,0,0,0,0,0,0,0,0,0,0,0,0,0,0,0,0,0,0,0,0,0,0,0,0,0,0,0,0,0,0,0,0,0,0,0,0,0,0,0,0,0,0,0,0,0,-0.0861,-0.086,0,-0.0796,-0.0795,-0.0795,-0.0749,-0.0749,-0.0748,-0.0748,-0.068,-0.0679,-0.0677,0,0,0,0,0,0,0,0,0,0,0,0,0,-0.0942,-0.094,-0.0861,-0.086,-0.0859,-0.0796,-0.0795,-0.0794,-0.0749,-0.0749,-0.0748,-0.0748,-0.0681,-0.0679,-0.0677,0,0,0,0,0,0,0,0,0,0,0,0,0,-0.0895,-0.094,-0.0861,-0.0829,-0.0825,-0.0796,-0.0795,-0.0794,-0.0749,-0.0749,-0.0748,-0.0748,-0.0681,-0.0679,-0.0677,-0.0674,0,0,-0.067,-0.0669,0,0,0,0,0,0,0,0,-0.0898,-0.0892,-0.0834,-0.0831,-0.0827,-0.078,-0.0799,-0.0754,-0.0749,-0.0778,-0.0748,-0.0747,-0.0714,-0.0709,-0.0698,-0.0671,-0.0668,-0.067,-0.0669,-0.0668,-0.0667,0,0,0,0,0,0,0,-0.0901,-0.0894,-0.0835,-0.0834,-0.0829,-0.0817,-0.081,-0.079,-0.075,-0.0775,-0.0772,-0.0765,-0.0712,-0.07,-0.0696,-0.0667,-0.067,-0.0668,-0.0667,-0.0666,-0.0632,-0.0633,0,0,0,0,0,0,-0.0909,-0.0897,-0.0837,-0.0833,-0.0862,-0.0816,-0.0808,-0.0796,-0.075,-0.0742,-0.0766,-0.0763,-0.0704,-0.0698,-0.0693,-0.0686,-0.0668,-0.0666,-0.0664,-0.0632,-0.0632,-0.0633,0,0,0,0,0,0,-0.0911,-0.0904,-0.084,-0.0864,-0.0855,-0.0815,-0.0802,-0.0795,-0.0783,-0.0742,-0.0735,-0.0761,-0.0703,-0.0696,-0.0679,-0.0683,-0.0665,-0.0663,-0.0631,-0.0632,-0.0633,-0.0672,0,0,0,0,0,0,-0.0914,-0.0905,-0.0905,-0.0865,-0.0854,-0.0827,-0.0802,-0.0794,-0.078,-0.0776,-0.0736,-0.0729,-0.0702,-0.0682,-0.0677,-0.068,-0.0661,-0.0631,-0.0632,-0.0632,-0.067,-0.0674,-0.0677,0,0,0,0,0,-0.0917,-0.0918,-0.0905,-0.0898,-0.0852,-0.0828,-0.0821,-0.0791,-0.078,-0.0778,-0.0752,-0.073,-0.0683,-0.0681,-0.0674,-0.0676,-0.063,-0.0631,-0.0632,-0.0668,-0.0673,-0.0677,0,0,0,0,0,0,-0.096,-0.0913,-0.0897,-0.0886,-0.0861,-0.082,-0.0817,-0.0797,-0.0775,-0.0772,-0.0735,-0.0726,-0.0712,-0.0692,-0.069,-0.067,-0.0654,-0.0654,-0.0684,-0.0688,-0.0691,-0.0696,-0.0659,0,0,0,0,0,-0.0968,-0.0953,-0.0912,-0.0906,-0.0894,-0.0858,-0.0846,-0.0825,-0.0797,-0.0786,-0.0759,-0.0732,-0.0711,-0.0698,-0.0677,-0.0667,-0.0657,-0.0665,-0.0668,-0.0671,-0.0671,-0.0663,-0.0666,-0.0636,-0.0636,-0.0636,0,0,-0.0985,-0.0957,-0.095,-0.0914,-0.0892,-0.0876,-0.0849,-0.0834,-0.0821,-0.0784,-0.0766,-0.0744,-0.0712,-0.0698,-0.069,-0.0681,-0.0677,-0.0672,-0.0675,-0.0674,-0.0664,-0.0667,-0.067,-0.0637,-0.0637,-0.0636,0,0,-0.1007,-0.0985,-0.0977,-0.0955,-0.0923,-0.0898,-0.0897,-0.0858,-0.0842,-0.0824,-0.0795,-0.0779,-0.0744,-0.0722,-0.0706,-0.0718,-0.0697,-0.0712,-0.0731,-0.0723,-0.0725,-0.0727,-0.0731,-0.0733,-0.0712,-0.0713,-0.0713,0,-0.1032,-0.1007,-0.0975,-0.0961,-0.0945,-0.0911,-0.0901,-0.0882,-0.0844,-0.0834,-0.0824,-0.0778,-0.0755,-0.0734,-0.0737,-0.0726,-0.0721,-0.0717,-0.0728,-0.0729,-0.073,-0.0734,-0.0735,-0.0715,-0.0714,-0.0714,-0.0714,0,-0.1039,-0.1022,-0.1019,-0.0984,-0.0968,-0.0956,-0.0921,-0.0908,-0.0888,-0.0864,-0.0845,-0.0815,-0.0786,-0.0779,-0.0759,-0.0756,-0.0751,-0.0735,-0.0718,-0.0736,-0.0738,-0.0739,-0.0717,-0.0717,-0.0716,-0.0716,0,0,-0.1087,-0.1033,-0.1032,-0.1015,-0.0976,-0.0962,-0.0948,-0.0921,-0.091,-0.0885,-0.0871,-0.0842,-0.0827,-0.0809,-0.0786,-0.0779,-0.0789,-0.0764,-0.0762,-0.0769,-0.0782,-0.0795,-0.0797,-0.0775,-0.0775,-0.0775,-0.0785,0,-0.1103,-0.1077,-0.1047,-0.1031,-0.1015,-0.0981,-0.0968,-0.0943,-0.092,-0.0901,-0.0876,-0.0855,-0.0837,-0.0826,-0.0818,-0.079,-0.0792,-0.0789,-0.0762,-0.0761,-0.0771,-0.0798,-0.0811,-0.0822,-0.0786,-0.0786,-0.0786,0,-0.1118,-0.1095,-0.1078,-0.1039,-0.1031,-0.102,-0.0992,-0.0975,-0.0944,-0.0928,-0.0908,-0.0883,-0.0865,-0.085,-0.0824,-0.0823,-0.081,-0.0795,-0.0794,-0.0791,-0.0775,-0.0795,-0.0824,-0.0826,-0.0787,-0.0787,-0.0787,0,-0.1155,-0.1118,-0.1103,-0.109,-0.1044,-0.1038,-0.1018,-0.0987,-0.0972,-0.0946,-0.0936,-0.0909,-0.0894,-0.0873,-0.0841,-0.0833,-0.0818,-0.0801,-0.0803,-0.0804,-0.0802,-0.0803,-0.083,-0.0794,-0.0794,-0.0794,-0.0794,0,-0.1176,-0.1166,-0.1119,-0.1109,-0.1097,-0.1062,-0.1051,-0.1028,-0.1,-0.0985,-0.0954,-0.094,-0.0898,-0.0879,-0.0854,-0.0836,-0.083,-0.0815,-0.0809,-0.0818,-0.082,-0.0809,-0.0807,-0.0794,-0.0794,-0.0794,-0.0794,0,-0.1215,-0.1182,-0.1163,-0.1122,-0.1111,-0.1104,-0.1068,-0.1056,-0.1031,-0.1012,-0.1006,-0.0966,-0.0942,-0.0907,-0.0873,-0.0855,-0.0841,-0.0831,-0.0852,-0.0848,-0.0852,-0.0852,-0.0874,-0.0874,-0.0839,-0.0839,-0.0839,0,-0.123,-0.1222,-0.1179,-0.1167,-0.1149,-0.113,-0.1114,-0.1078,-0.1063,-0.1026,-0.1019,-0.0993,-0.097,-0.0932,-0.09,-0.0872,-0.0861,-0.087,-0.0856,-0.0866,-0.086,-0.0861,-0.086,-0.0873,-0.0874,-0.0874,-0.0875,0,-0.1261,-0.1245,-0.1224,-0.1197,-0.1179,-0.1156,-0.1131,-0.1123,-0.1081,-0.1065,-0.104,-0.1022,-0.0987,-0.096,-0.0928,-0.0907,-0.0884,-0.0879,-0.0878,-0.0888,-0.09,-0.0893,-0.0861,-0.0879,-0.0879,-0.0878,-0.0878,-0.0878,-0.1288,-0.1279,-0.1247,-0.1224,-0.1202,-0.1179,-0.1167,-0.114,-0.1118,-0.1087,-0.1067,-0.1042,-0.101,-0.0965,-0.0945,-0.0924,-0.0915,-0.0914,-0.0914,-0.0914,-0.0917,-0.0904,-0.0918,-0.0918,-0.0918,-0.0918,-0.0918,0,-0.1317,-0.1294,-0.1274,-0.124,-0.1222,-0.1202,-0.1173,-0.1159,-0.1138,-0.111,-0.1088,-0.1058,-0.1032,-0.0997,-0.0968,-0.0958,-0.0947,-0.0952,-0.0952,-0.0948,-0.0927,-0.0931,-0.0962,-0.0962,-0.0962,-0.0962,-0.0962,-0.0962,-0.1329,-0.1313,-0.1293,-0.1264,-0.1242,-0.1218,-0.1203,-0.1182,-0.1159,-0.1128,-0.1106,-0.1084,-0.1052,-0.1021,-0.0995,-0.0986,-0.0976,-0.0985,-0.0972,-0.0953,-0.0949,-0.0945,-0.0949,-0.0983,-0.0983,-0.0993,-0.0994,-0.0994]}]]